SCP
0 0 0 0 0 0 0 0 0 0 0 0 0 0 0 0 0 0 -0 -0 -0 0 0 0 0 0 0 0 0 0 0 0 0 0 0 0 0 0 0 0 0 0 0
0 0 0 0 0 0 0 0 0 0 0 0 0 -0 0 0 0 -0 -0 -0 -0 -0 0 0 0 0 0 0 0 0 0 0 0 0 0 0 0 0 0 0 0 0 0
0 0 0 0 0 0 0 0 0 0 0 0 -0 -0 0 0 0 0 0 -0 -0 -0 0 0 0 0 0 0 0 0 0 0 0 0 0 0 0 0 0 0 0 0 0
0 0 0 0 0 0 0 0 0 -0 -0 -0 -0 -0 0 0 0 0 0 0 0 0 0 0 0 0 0 0 0 0 0 0 0 0 0 0 0 0 0 0 0 0 0
0 0 0 0 0 0 0 0 -0 -0 -0 -0 -0 0 0 0 0 0 0 0 0 0 0 0 0 0 0 0 0 0 0 0 0 0 0 0 0 0 0 0 0 0 0
0 0 0 0 0 0 0 0 0 -0 -0 -0 0 0 0 0 0 0 0 0 0 0 0 0 0 0 0 0 0 0 0 0 0 0 0 0 0 0 0 0 0 0 0
0 0 0 0 0 0 0 0 0 0 0 0 0 0 0 0 0 0 0 0 0 0 0 0 0 0 0 0 0 0 0 0 0 0 0 0 0 0 0 0 0 0 0
0 0 0 0 0 0 0 0 0 0 0 0 0 0 0 0 0 0 0 0 0 0 0 0 0 0 0 0 0 0 0 0 0 0 0 0 0 0 0 0 0 0 0
0 0 0 0 0 0 0 0 0 0 0 0 0 0 0 0 0 0 0 0 0 0 0 0 0 0 0 0 0 0 0 0 0 0 0 0 0 0 0 0 0 0 0
0 0 0 0 0 0 0 0 0 0 0 0 0 0 0 0 0 0 0 0 0 0 0 0 0 0 0 0 0 0 0 0 0 0 0 0 0 0 0 0 0 0 0
0 0 0 0 0 0 0 0 0 0 0 0 0 0 0 0 0 0 0 0 0 0 0 0 0 0 0 0 0 0 0 0 0 0 0 0 0 0 0 0 0 0 0
0 0 0 0 0 0 0 0 0 0 0 0 0 0 0 0 0 0 0 0 0 0 0 0 0 0 0 0 0 0 0 0 0 0 0 0 0 0 0 0 0 0 0
0 0 0 0 0 0 0 0 0 0 0 0 0 0 0 0 0 0 0 0 0 0 0 0 0 0 0 0 0 0 0 0 0 0 0 0 0 0 0 0 0 0 0
0 0 0 0 0 0 0 0 0 0 0 0 0 0 0 0 0 0 0 0 0 0 0 0 0 0 0 0 0 0 0 0 0 0 0 0 0 0 0 0 0 0 0
0 0 0 0 0 0 0 0 0 0 0 0 0 0 0 0 0 0 0 0 0 0 0 0 0 0 0 0 0 0 0 0 0 0 0 0 0 0 0 0 0 0 0
0 0 0 0 0 0 0 0 0 0 0 0 0 0 0 0 0 0 0 0 0 0 0 0 0 0 0 0 0 0 0 0 0 0 0 0 0 0 0 0 0 0 0
0 0 0 0 0 0 0 0 0 0 0 0 0 0 0 0 0 0 0 0 0 0 0 0 0 0 0 0 0 0 0 0 0 0 0 0 0 0 0 0 0 0 0
0 0 0 0 0 0 0 0 0 0 0 0 0 0 0 0 0 0 0 0 0 0 0 0 0 0 0 0 0 0 0 0 0 0 0 0 0 0 0 0 0 0 0
0 0 0 0 0 0 0 0 0 0 0 0 0 0 0 0 0 0 0 0 0 0 0 0 0 0 0 0 0 0 0 0 0 0 0 0 0 0 0 0 0 0 0
0 0 0 0 0 0 0 0 0 0 0 0 0 0 0 0 0 0 0 0 0 0 0 0 0 0 0 0 0 0 0 0 0 0 0 0 0 0 0 0 0 0 0
0 0 0 0 0 0 0 0 0 0 0 0 0 0 0 0 0 0 0 0 0 0 0 0 0 0 0 0 0 0 0 0 0 0 0 0 0 0 0 0 0 0 0
0 0 0 0 0 0 0 0 0 0 0 0 0 0 0 0 0 0 0 0 0 0 0 0 0 0 0 0 0 0 0 0 0 0 0 0 0 0 0 0 0 0 0
0 0 0 0 0 0 0 0 0 0 0 0 0 0 0 0 0 0 0 0 0 0 0 0 0 0 0 0 0 0 0 0 0 0 0 0 0 0 0 0 0 0 0
0 0 0 0 0 0 0 0 0 0 0 0 0 0 0 0 0 0 0 0 0 0 0 0 0 0 0 0 0 0 0 0 0 0 0 0 0 0 0 0 0 0 0
0 0 0 0 0 0 0 0 0 0 0 0 0 0 0 0 0 0 0 0 0 0 0 0 0 0 0 0 0 0 0 0 0 0 0 0 0 0 0 0 0 0 0
0 0 0 0 0 0 0 0 0 0 0 0 0 0 0 0 0 0 0 0 0 0 0 0 0 0 0 0 0 0 0 0 0 0 0 0 0 0 0 0 0 0 0
Wind_Speed
7 8 10 9 10 10 11 11 10 10 10 10 11 11 12 12 11 11 11 10 10 10 9 9 9 8 8 8 9 9 9 8 8 9 8 9 9 9 8 7 7 8 11
9 9 11 9 10 10 10 10 10 10 10 11 11 11 11 11 11 10 10 9 9 9 9 8 8 8 8 8 8 8 8 7 8 8 8 8 8 8 7 5 4 7 9
9 10 10 9 9 9 9 9 9 10 10 10 10 10 10 10 10 9 9 9 9 8 8 8 7 7 7 7 7 7 7 7 7 7 6 6 8 8 7 7 7 8 8
9 9 9 10 9 9 9 8 9 9 10 10 10 10 9 9 9 8 8 8 8 7 7 7 7 6 7 7 7 6 6 6 5 5 4 5 6 9 8 8 8 7 8
9 8 11 9 9 9 8 8 8 8 9 9 9 9 8 8 8 8 8 7 7 7 6 6 6 6 6 6 6 6 5 4 4 5 3 4 4 8 7 7 7 7 8
9 9 11 9 9 8 8 8 9 9 9 9 9 8 8 8 7 7 7 7 7 7 6 6 6 6 6 5 5 5 5 4 6 4 4 4 5 7 7 7 7 7 7
9 9 11 9 9 8 9 9 9 9 9 9 8 7 7 7 7 7 7 6 7 6 6 6 5 5 5 5 4 4 4 4 4 3 3 4 5 7 7 6 6 7 7
8 10 11 11 9 9 9 9 8 8 8 8 8 7 7 7 7 7 6 6 6 6 6 5 5 5 4 4 4 4 3 5 3 2 2 3 7 6 6 6 6 6 7
9 10 10 10 11 10 9 8 7 8 7 7 7 6 6 6 5 5 5 5 6 6 5 5 5 5 4 3 3 3 2 4 3 2 3 3 7 6 6 6 6 6 6
8 9 9 8 8 8 10 9 8 8 7 6 6 5 5 5 6 6 6 6 6 5 5 5 4 4 4 4 4 3 3 5 3 2 2 5 7 5 6 6 6 6 6
8 7 7 8 7 7 7 9 8 8 7 5 6 6 4 3 3 5 6 6 5 4 5 4 4 4 4 5 5 4 5 3 1 1 2 8 6 5 5 6 6 6 6
9 7 6 6 6 6 5 5 4 4 5 3 2 3 2 2 1 3 7 5 5 4 5 5 5 5 6 4 7 7 3 2 2 2 4 7 5 5 5 5 5 6 6
9 7 7 6 5 5 4 3 3 2 3 3 3 2 2 1 2 2 2 4 4 5 4 6 6 3 1 0 1 2 1 1 1 1 6 7 4 4 5 5 6 5 6
8 8 7 7 5 4 3 3 3 2 2 2 3 2 1 1 1 1 1 1 2 1 1 2 2 2 1 1 1 1 1 1 1 1 5 6 3 3 4 5 5 6 6
8 7 7 6 5 4 3 1 2 2 2 3 2 2 1 1 1 1 1 0 1 2 2 2 2 1 2 2 2 2 1 1 1 1 4 7 5 3 3 4 4 5 6
7 7 7 6 6 5 4 2 2 2 2 2 2 2 1 0 1 1 1 1 1 1 1 1 2 2 2 1 1 1 2 2 2 2 2 6 7 5 4 3 4 4 5
8 7 7 7 6 5 4 3 2 2 2 2 2 2 1 1 1 1 1 1 1 1 2 2 2 2 3 2 2 2 2 2 2 2 1 2 5 7 6 4 4 3 4
8 8 7 6 7 6 4 3 2 2 2 2 2 2 1 1 0 1 1 0 1 1 2 2 2 2 1 1 1 1 2 2 2 2 2 2 1 3 6 6 4 3 3
8 8 8 7 6 6 5 3 2 2 1 1 1 1 1 1 0 1 0 1 1 1 1 1 1 1 1 1 2 2 2 2 2 2 2 2 2 2 2 7 6 4 3
9 9 9 8 7 6 5 4 2 2 2 2 2 1 1 1 1 1 1 1 1 1 1 1 1 1 1 2 1 1 2 2 2 1 2 2 2 3 3 3 5 6 6
10 10 9 8 8 6 5 4 4 3 3 2 2 2 1 1 1 1 1 0 1 1 1 1 1 2 2 1 2 2 2 3 2 2 2 1 2 2 2 3 2 2 4
10 10 9 9 8 7 5 3 3 2 2 2 1 2 1 1 1 1 0 1 1 1 1 1 1 1 1 1 2 2 2 4 3 2 2 2 2 2 3 3 2 2 2
11 11 9 9 9 8 7 5 4 3 3 3 3 2 1 1 1 1 1 1 1 2 1 1 2 2 2 2 2 3 2 1 1 3 3 2 2 2 3 2 3 3 3
12 11 11 10 9 8 8 6 6 4 4 3 2 2 2 2 2 2 1 1 1 1 1 2 1 2 3 2 1 2 3 3 3 1 3 3 3 3 3 3 3 3 3
12 11 11 11 10 9 8 7 6 5 4 3 3 3 3 3 2 2 2 2 2 2 1 1 1 3 2 2 2 2 2 2 4 4 2 2 2 3 2 3 3 2 3
12 11 11 11 10 9 9 8 7 6 5 4 4 3 4 3 2 2 2 2 2 1 1 2 2 2 2 2 3 2 2 3 3 3 3 3 3 2 2 2 3 2 3
Wind_Direction
117 116 116 121 120 118 117 115 116 118 122 124 123 122 124 126 125 123 121 119 117 115 115 117 118 118 114 113 113 112 112 113 112 111 111 111 114 116 118 125 141 125 116
118 118 121 122 121 119 118 118 119 120 124 124 122 123 123 125 125 123 121 119 118 116 113 114 116 117 115 113 113 113 112 113 115 119 122 126 122 122 125 122 100 109 126
122 121 127 123 123 120 119 120 122 124 125 127 126 126 128 127 126 125 124 121 120 117 116 118 119 118 117 117 115 114 113 113 122 134 161 149 129 130 129 123 118 127 131
121 123 120 119 121 119 120 123 124 125 127 129 130 131 132 132 132 130 127 124 122 124 127 126 123 122 117 120 117 115 117 120 134 179 180 136 130 129 137 135 134 135 137
118 118 114 122 120 118 118 123 126 124 125 128 131 133 135 135 135 134 131 128 126 125 127 131 133 129 123 124 123 122 127 140 178 215 138 129 125 130 144 144 143 144 145
126 123 116 124 121 118 115 121 123 122 122 123 125 128 132 132 130 131 131 133 132 131 130 128 131 130 130 131 132 134 141 171 208 176 148 151 136 136 149 153 155 156 154
129 125 122 123 121 118 115 118 116 120 123 122 121 123 128 130 130 128 128 132 135 136 136 135 137 137 139 142 140 144 155 205 222 160 158 151 124 137 157 163 164 163 161
123 128 124 128 121 117 114 115 117 119 121 119 118 117 120 123 123 121 123 130 136 138 135 133 139 142 140 144 153 148 169 233 193 168 158 133 121 145 165 171 171 166 166
114 119 125 131 131 129 120 115 115 116 114 112 112 114 114 120 126 126 124 132 138 137 135 130 128 133 133 135 141 145 177 252 248 161 159 127 126 155 169 174 177 176 175
111 114 122 125 125 133 130 123 117 111 107 111 115 114 118 136 145 144 145 131 136 138 137 129 129 126 127 130 136 150 194 233 228 173 144 116 132 161 178 182 183 184 187
120 120 121 123 126 125 119 119 130 129 124 136 135 129 149 143 132 148 113 117 127 135 145 141 138 134 153 159 162 177 218 221 171 149 92 107 138 169 185 186 188 192 194
133 128 122 121 122 118 113 122 131 128 122 125 109 121 122 100 99 106 117 129 141 149 157 155 159 182 212 177 163 192 210 181 187 149 108 123 153 180 189 189 191 196 199
134 132 135 124 118 116 121 125 114 109 114 130 117 109 111 131 132 133 138 151 156 174 175 158 188 194 180 121 201 182 155 188 145 124 109 126 152 183 195 196 193 193 195
141 143 139 132 127 117 106 117 136 131 128 117 117 139 132 115 102 107 119 121 145 145 155 176 170 153 165 183 195 165 166 205 116 91 107 124 147 179 190 194 190 193 199
153 151 145 138 131 135 135 159 130 134 136 129 127 133 150 149 128 118 112 143 166 151 175 182 163 159 184 186 192 172 163 138 135 132 121 133 145 157 169 180 191 195 199
164 160 152 161 156 158 161 160 141 140 150 146 145 133 174 115 99 157 149 156 159 177 165 189 179 187 208 183 204 186 209 173 149 185 155 148 154 161 168 175 187 196 200
173 172 169 171 164 168 170 171 166 174 146 132 124 132 154 110 126 198 170 182 140 160 165 184 188 201 205 196 199 198 204 204 166 187 207 190 161 164 169 169 172 188 197
177 174 178 178 167 167 175 185 176 171 147 156 140 132 123 97 162 250 208 155 129 179 177 184 204 201 197 214 200 209 194 181 193 200 203 205 200 165 159 159 163 172 179
181 179 178 178 174 172 173 187 185 175 177 177 159 153 121 133 211 247 240 102 210 192 189 210 144 217 195 216 205 191 202 188 185 197 193 203 197 190 163 151 165 167 179
182 183 181 180 177 177 179 184 183 178 182 183 173 136 146 185 184 263 201 188 241 186 171 145 157 208 232 230 246 176 200 183 190 186 232 207 201 204 194 169 177 176 182
182 183 184 186 175 184 184 189 185 182 184 180 160 136 165 174 149 259 298 197 256 177 169 185 195 184 209 214 234 202 186 185 193 181 212 236 200 198 193 186 201 200 176
182 182 182 183 180 189 180 187 187 178 185 170 159 154 185 172 224 204 229 239 233 182 162 178 215 239 191 203 258 245 210 183 194 186 193 209 219 201 200 194 180 193 238
185 185 185 184 182 187 181 185 175 176 194 183 186 178 179 204 217 255 212 245 243 241 177 209 232 240 232 209 265 289 281 258 206 177 199 212 216 229 227 212 207 203 220
188 184 183 182 184 184 188 193 194 199 199 187 196 172 191 200 207 208 212 220 251 253 203 232 198 257 259 243 208 271 305 333 292 240 199 197 204 221 243 252 238 213 224
186 183 180 180 182 184 192 192 203 206 200 182 187 179 212 195 205 204 204 212 232 246 227 286 271 268 263 277 273 262 258 248 263 274 271 251 224 218 223 242 250 241 235
184 182 178 177 183 185 192 193 200 202 204 197 199 190 209 195 196 190 204 218 234 250 220 240 253 244 274 289 286 280 277 267 262 267 267 250 245 227 230 244 255 248 240